TimeCDT,TemperatureF,Dew PointF,Humidity,Sea Level PressureIn,VisibilityMPH,Wind Direction,Wind SpeedMPH,Gust SpeedMPH,PrecipitationIn,Events,Conditions,WindDirDegrees,DateUTC
12:43 AM,71.6,71.6,100,29.75,4.0,ENE,8.1,-,N/A,Rain,Rain,70,2011-10-16 05:43:00
1:49 AM,69.8,69.8,100,29.74,1.0,East,3.5,-,N/A,Rain,Heavy Rain,80,2011-10-16 06:49:00
2:42 AM,69.8,69.8,100,29.74,3.0,Calm,Calm,-,N/A,Rain,Heavy Rain,0,2011-10-16 07:42:00
3:51 AM,71.6,71.6,100,29.73,4.0,East,10.4,-,N/A,Rain,Rain,90,2011-10-16 08:51:00
4:43 AM,71.6,71.6,100,29.67,4.0,Calm,Calm,-,N/A,Rain,Rain,0,2011-10-16 09:43:00
5:52 AM,71.6,69.8,94,29.76,5.0,ENE,3.5,-,N/A,Rain,Light Rain,70,2011-10-16 10:52:00
6:46 AM,71.6,71.6,100,29.70,6.0,ENE,5.8,-,N/A,Rain,Light Rain,70,2011-10-16 11:46:00
7:44 AM,73.4,73.4,100,29.76,6.0,NE,5.8,-,N/A,,Overcast,50,2011-10-16 12:44:00
8:40 AM,73.4,73.4,100,29.76,6.0,East,6.9,-,N/A,,Overcast,80,2011-10-16 13:40:00
9:43 AM,73.4,73.4,100,29.82,6.0,NNE,6.9,-,N/A,,Overcast,30,2011-10-16 14:43:00
10:50 AM,75.2,75.2,100,29.75,6.0,NE,8.1,-,N/A,,Overcast,40,2011-10-16 15:50:00
11:47 AM,77.0,75.2,94,29.74,6.0,East,6.9,-,N/A,,Overcast,90,2011-10-16 16:47:00
12:48 PM,77.0,75.2,94,29.68,6.0,ESE,6.9,-,N/A,,Overcast,110,2011-10-16 17:48:00
1:48 PM,75.2,75.2,100,29.69,6.0,ESE,3.5,-,N/A,,Overcast,120,2011-10-16 18:48:00
2:43 PM,75.2,73.4,94,29.67,5.0,Calm,Calm,-,N/A,Rain,Light Rain,0,2011-10-16 19:43:00
3:40 PM,73.4,73.4,100,29.70,1.0,SE,3.5,-,N/A,Rain,Heavy Rain,130,2011-10-16 20:40:00
4:40 PM,73.4,73.4,100,29.70,6.0,Calm,Calm,-,N/A,,Mostly Cloudy,0,2011-10-16 21:40:00
5:49 PM,75.2,75.2,100,29.62,7.0,Calm,Calm,-,N/A,,Overcast,0,2011-10-16 22:49:00
6:43 PM,73.4,73.4,100,29.64,7.0,SSE,3.5,-,N/A,,Overcast,150,2011-10-16 23:43:00
7:46 PM,73.4,73.4,100,29.64,7.0,Calm,Calm,-,N/A,,Mostly Cloudy,0,2011-10-17 00:46:00
8:40 PM,73.4,73.4,100,29.69,7.0,SSE,3.5,-,N/A,,Mostly Cloudy,160,2011-10-17 01:40:00
9:44 PM,73.4,73.4,100,29.78,7.0,Calm,Calm,-,N/A,,Mostly Cloudy,0,2011-10-17 02:44:00
10:48 PM,73.4,73.4,100,29.74,7.0,Calm,Calm,-,N/A,,Mostly Cloudy,0,2011-10-17 03:48:00
11:46 PM,73.4,73.4,100,29.73,7.0,South,3.5,-,N/A,,Mostly Cloudy,190,2011-10-17 04:46:00